Location: Cañada de la Miga
(34.7595°N, 106.2317°W)
Time: 10:38:09
(UTC+00:00)

A-11 Canister half - Pass Details

Date: 08 December 2021
Orbit: 1516 x 1684 km, 47.2° (Epoch: 26 January)

Event Time Altitude Azimuth Distance (km) Brightness Sun altitude
Exits shadow 09:34:04 10° 145° (SE) 3,738 11.1 -53.8°
Reaches altitude 10° 09:34:16 10° 144° (SE) 3,715 11.1 -53.7°
Maximum altitude 09:37:49 13° 121° (ESE) 3,530 11.2 -53.0°
Drops below altitude 10° 09:41:24 10° 98° (E) 3,767 11.5 -52.3°
Sets 09:47:01 0° 73° (ENE) 4,798 12.2 -51.2°
